Погода в Куржине

Россия / Томская область     58°54′33″N   82°33′53″E
темп.,
°C
ветер,
м/с
пор.,
м/с
влажн.,
%
обл.,
%
осадки,
мм/ч
давл.,
гПа
погр.,
м
13 апреля, вт
вт1301:00−1зсз310945 0.1 1025276
04:00−3з38966 0.0 1026198
07:00−1зсз3792100 0.0 1027729
10:00+2з48825 0.0 1027622
13:00+3з5982100 0.1 10271022
16:00+4зсз61173100 0.2 10261434
19:00+3зсз5117399 0.2 10261021
22:00+1з51395100 0.1 1026913
14 апреля, ср
ср1401:00+1зсз41188100 0.1 1026547
04:00−1зюз3896100 0.0 1025248
07:000юз3998100 0.6 1022527
10:00+1юз41199100 3.9 1019608
13:00+3з61398100 7.1 1016954
16:00+3зсз51198100 0.1 1017881
19:00+2зсз41098100 0.1 1019696
22:00+2сз3798100 0.1 1022569
15 апреля, чт
чт1501:00+1з13100100 0.1 1022154
04:00+1юз13100100 0.1 102294
07:00+1юз2799100 0.1 1022264
10:00+2ююз3997100 0.0 1020363
13:00+6юз51290100 0.0 1017652
16:00+8юз5128981 0.0 1014682
19:00+9юз5148670 0.0 1012624
22:00+8юз5158538 0.0 1010465
16 апреля, пт
пт1601:00+7зюз515885 0.0 1009491
04:00+6зюз4139280 0.0 1008404
07:00+2с3790100 0.0 1009339
10:000с3899100 1.3 1009470
13:000с3793100 9.4 1011736
16:00+1с5770100 0.6 10131193
19:00−1с4867100 0.6 10151175
22:00−4с596794 0.0 1018807
17 апреля, сб
сб1701:00−7с49695 0.0 1019623
04:00−8ссв376972 0.0 1020523
07:00−9ссв366411 0.0 1021980
10:00−7ссв34535 0.0 10211115
13:00−4ссв23465 0.0 10201295
16:00−2ссв114345 0.0 10191367
19:00−3ююв1145100 0.0 10181175
22:00−6ююв2380100 0.0 101969